Station 41002 (LLNR 830) - SOUTH HATTERAS - 225 NM South of Cape Hatteras Image indicating link to RSS feed of recent meteorological observations for station 41002


Conditions at 41002 as of
(10:40 pm EDT on 04/20/2024)
0240 GMT on 04/21/2024:
     

Click on the graph icon in the table below to see a time series plot of the last five days of that observation.

5-day plot - Wind Direction Wind Direction (WDIR):SSW ( 210 deg true )
5-day plot - Wind Speed Wind Speed (WSPD): 13.6 kts
5-day plot - Wind Gust Wind Gust (GST): 15.5 kts
5-day plot - Atmospheric Pressure Atmospheric Pressure (PRES):29.97 in
5-day plot - Air Temperature Air Temperature (ATMP): 72.5 °F
5-day plot - Water Temperature Water Temperature (WTMP): 71.6 °F
5-day plot - Dew Point Dew Point (DEWP): 71.2 °F
5-day plot - Wind Speed at 10 Meters Wind Speed at 10 meters (WSPD10M): 15.5 kts
5-day plot - Wind Speed at 20 Meters Wind Speed at 20 meters (WSPD20M): 15.5 kts
5-day plot -  Wind Speed, Wind Gust and Atmospheric Pressure Combined plot of Wind Speed, Gust, and Air Pressure
Supplemental Measurements
Highest 1-minute Wind Speed
Time (EDT)5-day plot - 1-Minute Wind Speed WSPD 5-day plot - 1-Minute Wind Direction WDIR
10:36 pm 15.5 kts-
Previous observations
TIME
(EDT)
5-day plot - Wind Direction
WDIR
 
5-day plot - Wind Speed
WSPD
kts
5-day plot - Wind Gust
GST
kts
5-day plot - Wave Height
WVHT
ft
5-day plot - Dominant Wave Period
DPD
sec
5-day plot - Average Wave Period
APD
sec
5-day plot - Mean Wave Direction
MWD
 
5-day plot - Atmospheric Pressure
PRES
in
5-day plot - Pressure Tendency
PTDY
in
5-day plot - Air Temperature
ATMP
°F
5-day plot - Water Temperature
WTMP
°F
5-day plot - Dew Point
DEWP
°F
5-day plot - Salinity
SAL
psu
5-day plot - Visibility
VIS
nmi
5-day plot - Tide (above MLLW)
TIDE
ft
2024-04-20 10:30 pmSSW 13.6 17.5----29.97- 72.5 71.6 71.2---
2024-04-20 10:20 pmSSW 13.6 17.5 3.6 115.1 NE29.97- 72.5 71.6 71.1---
2024-04-20 10:10 pmSSW 13.6 17.5 3.6-5.1 NE29.97- 72.5 71.6 71.2---
2024-04-20 10:00 pmSSW 13.6 17.5----29.97+0.03 72.5 71.6 71.2---
2024-04-20 09:50 pmSSW 13.6 17.5 3.6 115.1ENE29.97- 72.5 71.6 71.2---
2024-04-20 09:40 pmSSW 13.6 17.5 3.6-5.1ENE29.97- 72.5 71.6 71.2---
2024-04-20 09:30 pmSSW 13.6 17.5----29.97- 72.5 71.6 71.2---
2024-04-20 09:20 pmSSW 13.6 17.5 3.9 115.5 NE29.97- 72.5 71.6 71.2---
2024-04-20 09:10 pmSSW 11.7 15.5 3.9-5.5 NE29.98- 72.5 71.8 71.2---
2024-04-20 09:00 pmSSW 11.7 13.6----29.98+0.04 72.7 71.8 71.4---
2024-04-20 08:50 pmSSW 11.7 15.5 3.6 85.2 E29.97- 72.5 71.8 71.2---
2024-04-20 08:40 pmSSW 11.7 13.6 3.6-5.2 E29.96- 72.5 71.8 71.2---
2024-04-20 08:30 pmSSW 11.7 15.5----29.96- 72.5 71.8 71.2---
2024-04-20 08:20 pmSSW 11.7 13.6 3.6 115.1 NE29.96- 72.7 71.8 71.4---
2024-04-20 08:10 pmSSW 11.7 15.5 3.6-5.1 NE29.96- 72.7 71.8 71.2---
2024-04-20 08:00 pmSSW 11.7 15.5----29.96+0.00 72.7 71.8 71.2---
2024-04-20 07:50 pmSSW 13.6 15.5 3.9 115.5 NE29.95- 72.7 71.8 71.2---
2024-04-20 07:40 pmSSW 13.6 17.5----29.95- 72.7 71.8 71.2---
2024-04-20 07:10 pmSSW 13.6 17.5 3.9-5.3 NE29.94- 72.9 71.8 71.1---
2024-04-20 07:00 pmSSW 13.6 17.5----29.94-0.02 72.9 71.8 71.1---
2024-04-20 06:50 pmSSW 13.6 17.5 3.6 115.2ENE29.94- 73.0 71.8 71.2---
2024-04-20 06:40 pmSSW 13.6 17.5----29.94- 73.0 71.8 71.2---
2024-04-20 06:30 pmSSW 13.6 17.5----29.93- 73.0 71.8 71.2---
2024-04-20 06:20 pmSSW 15.5 17.5 3.9 105.4NNE29.93- 73.0 71.8 71.2---
2024-04-20 06:10 pmSSW 13.6 17.5 3.9-5.4NNE29.94- 73.0 71.8 71.1---
2024-04-20 06:00 pmSSW 13.6 17.5----29.94-0.05 73.0 72.0 71.1---
2024-04-20 05:50 pmSSW 13.6 17.5 3.6 115.4NNE29.94- 73.0 72.0 71.1---
2024-04-20 05:40 pmSSW 13.6 17.5 3.6-5.4NNE29.93- 73.2 72.0 71.2---
2024-04-20 05:30 pmSSW 13.6 17.5----29.94- 73.2 72.0 71.2---
2024-04-20 05:20 pmSSW 13.6 17.5 3.6 95.1NNE29.94- 73.2 72.0 71.2---
2024-04-20 05:10 pmSSW 13.6 19.4 3.6-5.1NNE29.95- 73.2 72.0 71.2---
2024-04-20 05:00 pmSSW 15.5 17.5----29.95-0.06 73.2 72.0 71.2---
2024-04-20 04:50 pmSSW 13.6 17.5 3.6 85.6ENE29.95- 73.0 72.0 71.1---
2024-04-20 04:40 pmSSW 13.6 17.5 3.6-5.6ENE29.95- 73.0 72.0 71.1---
2024-04-20 04:30 pmSSW 13.6 17.5----29.96- 73.0 72.0 71.1---
2024-04-20 04:20 pmSSW 13.6 15.5 3.6 85.6 NE29.96- 73.0 72.1 71.1---
2024-04-20 04:10 pmSSW 13.6 15.5 3.6-5.6 NE29.96- 73.0 72.1 71.1---
2024-04-20 04:00 pmSSW 13.6 17.5----29.96-0.06 73.0 72.1 71.1---
2024-04-20 03:50 pm SW 13.6 15.5 3.6 95.7 NE29.97- 72.9 72.1 71.1---
2024-04-20 03:40 pm SW 11.7 15.5----29.97- 72.9 72.1 71.1---
2024-04-20 03:30 pm SW 13.6 15.5----29.98- 72.9 72.1 71.1---
2024-04-20 03:20 pm SW 13.6 17.5 3.6 85.6NNE29.98- 72.7 72.1 70.9---
2024-04-20 03:10 pm SW 13.6 15.5 3.6-5.6NNE29.98- 72.9 72.1 71.1---
2024-04-20 03:00 pmSSW 13.6 15.5----29.98-0.05 72.9 72.1 71.1---
2024-04-20 02:50 pmSSW 11.7 15.5 3.6 85.8ENE29.99- 72.9 72.1 71.1---
2024-04-20 02:40 pm SW 11.7 15.5----29.99- 72.9 72.1 71.1---
2024-04-20 02:30 pm SW 13.6 15.5----30.00- 72.9 72.1 71.1---
2024-04-20 02:20 pm SW 13.6 15.5 3.6 105.7NNE30.00- 72.7 72.1 70.9---
2024-04-20 02:10 pmSSW 11.7 15.5 3.6-5.7NNE30.01- 72.7 72.1 70.9---
2024-04-20 02:00 pmSSW 11.7 15.5----30.01-0.02 72.7 72.1 70.9---
2024-04-20 01:50 pm SW 11.7 15.5 3.6 115.6ENE30.01- 72.7 72.1 70.9---
2024-04-20 01:40 pm SW 11.7 15.5----30.01- 72.7 72.0 70.9---
2024-04-20 01:30 pm SW 11.7 15.5----30.02- 72.5 72.1 70.7---
2024-04-20 01:20 pm SW 11.7 13.6 3.9 95.8NNE30.02- 72.5 72.1 70.7---
2024-04-20 01:10 pm SW 11.7 15.5 3.9-5.8NNE30.02- 72.5 72.1 70.7---
2024-04-20 01:00 pm SW 11.7 15.5----30.02+0.00 72.3 72.1 70.5---
2024-04-20 12:50 pm SW 13.6 15.5 3.9 105.9NNE30.02- 72.3 72.1 70.5---
2024-04-20 12:40 pm SW 13.6 15.5----30.02- 72.3 72.1 70.5---
2024-04-20 12:30 pm SW 13.6 15.5----30.03- 72.1 72.1 70.3---
2024-04-20 12:20 pm SW 11.7 15.5 3.6 115.7ENE30.03- 72.1 72.1 70.5---
2024-04-20 12:10 pm SW 13.6 15.5 3.6-5.7ENE30.03- 72.1 72.1 70.5---
2024-04-20 12:00 pm SW 13.6 17.5----30.03+0.01 72.1 72.1 70.5---
2024-04-20 11:50 am SW 13.6 15.5 3.9 115.6 NE30.04- 72.1 72.1 70.5---
2024-04-20 11:40 am SW 13.6 17.5----30.04- 72.0 72.1 70.3---
2024-04-20 11:30 am SW 13.6 15.5----30.04- 72.0 72.1 70.3---
2024-04-20 11:20 am SW 13.6 15.5 3.9 96.2 NE30.03- 72.0 72.1 70.2---
2024-04-20 11:10 amSSW 13.6 15.5 3.9-6.2 NE30.03- 72.0 72.1 70.3---
2024-04-20 11:00 amSSW 13.6 15.5----30.03+0.01 71.8 72.1 70.0---
2024-04-20 10:50 am SW 11.7 15.5 3.9 96.0 NE30.04- 71.8 72.0 70.0---
2024-04-20 10:40 am SW 11.7 15.5 3.9-6.0 NE30.04- 72.0 72.0 70.2---
2024-04-20 10:30 am SW 11.7 15.5----30.04- 71.8 72.0 70.0---
2024-04-20 10:20 amSSW 11.7 15.5 3.9 86.0 NE30.03- 72.0 72.0 70.2---
2024-04-20 10:10 amSSW 11.7 13.6 3.9-6.0 NE30.03- 71.8 72.0 70.0---
2024-04-20 10:00 amSSW 11.7 13.6----30.03+0.01 71.8 72.0 70.0---
2024-04-20 09:50 amSSW 11.7 15.5 3.9 86.3NNE30.02- 71.8 72.0 70.0---
2024-04-20 09:40 amSSW 11.7 13.6----30.02- 71.8 71.8 70.0---
2024-04-20 09:30 am SW 11.7 13.6----30.02- 71.8 71.8 69.8---
2024-04-20 09:20 am SW 9.7 13.6 3.9 116.3ENE30.03- 72.0 71.8 70.0---
2024-04-20 09:10 am SW 9.7 13.6----30.03- 71.8 71.8 69.8---
2024-04-20 09:00 am SW 9.7 13.6----30.03+0.03 71.8 72.0 69.8---
2024-04-20 08:50 am SW 9.7 13.6 3.9 106.5NNE30.03- 72.0 71.8 70.0---
2024-04-20 08:40 am SW 9.7 13.6----30.02- 71.8 72.0 69.8---
2024-04-20 08:30 am SW 9.7 11.7----30.03- 71.8 72.0 69.8---
2024-04-20 08:20 am SW 9.7 11.7 3.9 86.4 NE30.02- 71.8 72.0 69.8---
2024-04-20 08:10 am SW 9.7 11.7 3.9-6.4 NE30.02- 71.8 72.0 69.8---
2024-04-20 08:00 am SW 9.7 11.7----30.02+0.04 71.8 72.0 70.0---
2024-04-20 07:50 am SW 9.7 11.7 3.9 86.1 NE30.02- 71.8 72.0 70.0---
2024-04-20 07:40 am SW 9.7 11.7----30.02- 71.6 72.0 69.8---
2024-04-20 07:30 am SW 9.7 11.7----30.02- 71.6 72.0 69.8---
2024-04-20 07:20 am SW 9.7 11.7 4.3 106.5 NE30.02- 71.6 72.0 70.0---
2024-04-20 07:10 am SW 7.8 11.7 4.3-6.5 NE30.02- 71.6 72.0 70.2---
2024-04-20 07:00 amWSW 7.8 11.7----30.02+0.04 71.6 72.1 70.2---
2024-04-20 06:50 am SW 9.7 11.7 3.6 106.0 NE30.01- 71.4 72.1 70.0---
2024-04-20 06:40 am SW 9.7 11.7----30.01- 71.4 72.1 70.0---
2024-04-20 06:30 amWSW 9.7 11.7----30.01- 71.4 72.1 70.0---
2024-04-20 06:20 amWSW 9.7 11.7 4.3 96.2 NE30.01- 71.4 72.1 70.0---
2024-04-20 06:10 amWSW 9.7 11.7 4.3-6.2 NE30.00- 71.6 72.1 70.3---
2024-04-20 06:00 amWSW 9.7 11.7----30.00+0.02 71.4 72.1 70.2---
2024-04-20 05:50 amWSW 9.7 13.6 4.3 96.3 NE30.00- 71.4 72.1 70.0---
2024-04-20 05:40 amWSW 9.7 13.6 4.3-6.3 NE30.00- 71.4 72.1 70.2---
2024-04-20 05:30 amWSW 9.7 13.6----29.99- 71.4 72.1 70.2---
2024-04-20 05:20 amWSW 11.7 13.6 4.3 96.2 NE29.99- 71.4 72.1 70.2---
2024-04-20 05:10 am SW 9.7 13.6 4.3-6.2 NE29.98- 71.4 72.3 70.2---
2024-04-20 05:00 am SW 9.7 13.6----29.98-0.01 71.4 72.3 70.2---
2024-04-20 04:50 amWSW 9.7 13.6 3.9 106.1 NE29.98- 71.6 72.3 70.3---
2024-04-20 04:40 am SW 9.7 13.6 3.9-6.1 NE29.98- 71.6 72.3 70.3---
2024-04-20 04:30 am SW 11.7 13.6----29.98- 71.4 72.3 70.2---
2024-04-20 04:20 amWSW 11.7 13.6 3.9 115.9ENE29.98- 71.6 72.3 70.3---
2024-04-20 04:10 am SW 11.7 13.6 3.9-5.9ENE29.98- 71.6 72.3 70.3---
2024-04-20 04:00 am SW 11.7 13.6----29.98-0.02 71.6 72.3 70.3---
2024-04-20 03:50 am SW 11.7 15.5 3.9 85.9 NE29.98- 71.6 72.3 70.3---
2024-04-20 03:40 am SW 11.7 15.5----29.98- 71.6 72.3 70.3---
2024-04-20 03:30 am SW 11.7 15.5----29.98- 71.6 72.3 70.3---
2024-04-20 03:20 am SW 11.7 15.5 3.9 85.8 E29.98- 71.6 72.3 70.3---
2024-04-20 03:10 am SW 11.7 15.5 3.9-5.8 E29.98- 71.6 72.1 70.3---
2024-04-20 03:00 am SW 11.7 15.5----29.98-0.03 71.6 72.1 70.3---
2024-04-20 02:50 am SW 11.7 15.5 3.9 95.7ENE29.98- 71.6 72.1 70.3---
2024-04-20 02:40 am SW 11.7 15.5----29.98- 71.8 72.1 70.5---
2024-04-20 02:30 amWSW 11.7 15.5----29.98- 71.8 72.1 70.5---
2024-04-20 02:20 am SW 11.7 13.6 3.6 115.7 E29.98- 71.8 72.1 70.3---
2024-04-20 02:10 am SW 11.7 13.6 3.6-5.7 E29.99- 71.8 72.1 70.3---
2024-04-20 02:00 am SW 11.7 13.6----29.99-0.02 71.8 72.3 70.3---
2024-04-20 01:50 am SW 11.7 13.6 3.9 85.6 E29.99- 71.8 72.3 70.3---
2024-04-20 01:40 am SW 11.7 13.6----30.00- 71.8 72.3 70.3---
2024-04-20 01:30 am SW 11.7 13.6----30.00- 71.8 72.3 70.3---
2024-04-20 01:20 am SW 11.7 13.6 3.9 85.9ENE30.00- 71.8 72.3 70.5---
2024-04-20 01:10 am SW 11.7 13.6 3.9-5.9ENE30.00- 71.8 72.3 70.5---
2024-04-20 01:00 am SW 11.7 13.6----30.00-0.02 71.8 72.3 70.5---
2024-04-20 12:50 am SW 11.7 13.6 3.9 86.0ENE30.00- 71.8 72.3 70.5---
2024-04-20 12:40 am SW 11.7 13.6----30.00- 71.8 72.3 70.5---
2024-04-20 12:30 am SW 11.7 13.6----30.01- 71.8 72.3 70.5---
2024-04-20 12:20 am SW 11.7 13.6 3.6 86.0 E30.01- 71.8 72.3 70.5---
2024-04-20 12:10 am SW 11.7 13.6 3.6-6.0 E30.01- 71.8 72.3 70.5---
2024-04-20 12:00 am SW 11.7 13.6----30.01+0.00 71.8 72.3 70.5---
2024-04-19 11:50 pm SW 9.7 13.6 3.9 106.0ENE30.01- 71.8 72.3 70.5---
2024-04-19 11:40 pm SW 9.7 11.7----30.01- 71.8 72.3 70.5---
2024-04-19 11:30 pm SW 9.7 13.6----30.01- 71.8 72.3 70.5---
2024-04-19 11:20 pm SW 9.7 11.7 3.9 96.0ENE30.01- 71.8 72.3 70.5---
2024-04-19 11:10 pm SW 9.7 11.7 3.9-6.0ENE30.01- 72.0 72.3 70.7---
2024-04-19 11:00 pm SW 9.7 11.7----30.01+0.03 72.0 72.3 70.7---
2024-04-19 10:50 pm SW 7.8 9.7 3.6 95.9 E30.01- 72.0 72.3 70.7---

Detailed Wave Summary
for 41002 as of
(10:10 pm EDT on 04/20/2024)
0210 GMT on 04/21/2024:

These wave data are displayed in rounded times.

     

Click on the graph icon in the table below to see a time series plot of the last five days of that observation.

5-day plot - Significant Wave Height Significant Wave Height (WVHT): 3.6 ft
5-day plot - Swell Height Swell Height (SwH): 2.6 ft
5-day plot - Swell Period Swell Period (SwP): 10.8 sec
5-day plot - Swell Direction Swell Direction (SwD): NE
5-day plot - Wind Wave Height Wind Wave Height (WWH): 2.6 ft
5-day plot - Wind Wave Period Wind Wave Period (WWP): 4.0 sec
5-day plot - Wind Wave Direction Wind Wave Direction (WWD): SW
5-day plot - Wave Steepness Wave Steepness (STEEPNESS): SWELL
5-day plot - Average Wave Period Average Wave Period (APD): 5.1 sec
Previous observations
TIME
(EDT)
5-day plot - Wave Height
WVHT
ft
5-day plot - Swell Height
SwH
ft
5-day plot - Swell Period
SwP
sec
5-day plot - Swell Direction
SwD
 
5-day plot - Wind Wave Height
WWH
ft
5-day plot - Wind Wave Period
WWP
sec
5-day plot - Wind Wave Direction
WWD
 
5-day plot - Wave Steepness
STEEPNESS
 
5-day plot - Average Wave Period
APD
sec
2024-04-20 09:40 pm 3.6 2.3 11.4ENE 3.0 4.8 W AVERAGE 5.1
2024-04-20 09:10 pm 3.9 3.0 10.8 NE 2.6 5.3 WSW SWELL 5.5
2024-04-20 08:40 pm 3.6 2.6 8.3 E 2.6 4.8 W AVERAGE 5.2
2024-04-20 08:10 pm 3.6 2.6 10.8 NE 2.6 4.3 WSW SWELL 5.1
2024-04-20 07:40 pm 3.9 3.0 10.8 NE 2.6 4.2 WSW SWELL 5.5
2024-04-20 07:10 pm 3.9 2.6 9.1 NE 2.6 4.5 WSW SWELL 5.3
2024-04-20 06:40 pm 3.6 2.6 11.4ENE 2.6 4.8 WSW SWELL 5.2
2024-04-20 06:10 pm 3.9 3.0 10.0NNE 2.6 4.3 WSW SWELL 5.4
2024-04-20 05:40 pm 3.6 2.6 10.8NNE 2.3 4.3 WSW SWELL 5.4
2024-04-20 05:10 pm 3.6 2.6 9.1NNE 2.6 4.0 WSW SWELL 5.1
2024-04-20 04:40 pm 3.6 3.0 8.3ENE 2.0 4.3 WSW AVERAGE 5.6
2024-04-20 04:10 pm 3.6 3.0 8.3 NE 2.0 4.0 WSW AVERAGE 5.6
2024-04-20 03:40 pm 3.6 3.0 9.1 NE 2.0 4.5 WSW SWELL 5.7
2024-04-20 03:10 pm 3.6 3.0 8.3NNE 2.0 4.3 WSW AVERAGE 5.6
2024-04-20 02:40 pm 3.6 3.3 8.3ENE 2.0 4.2 WSW AVERAGE 5.8
2024-04-20 02:10 pm 3.6 3.3 10.0NNE 2.0 4.0 W SWELL 5.7
2024-04-20 01:40 pm 3.6 3.0 11.4ENE 2.0 4.0 WSW SWELL 5.6
2024-04-20 01:10 pm 3.9 3.3 9.1NNE 2.0 3.8 WSW SWELL 5.8
2024-04-20 12:40 pm 3.9 3.3 10.0NNE 2.0 4.8 WSW SWELL 5.9
2024-04-20 12:10 pm 3.6 3.0 10.8ENE 2.3 4.5 WSW SWELL 5.7
2024-04-20 11:40 am 3.9 3.0 10.8 NE 2.3 4.5 WSW SWELL 5.6
2024-04-20 11:10 am 3.9 3.6 9.1 NE 2.0 4.5 WSW SWELL 6.2
2024-04-20 10:40 am 3.9 3.3 9.1 NE 2.0 4.8 WSW SWELL 6.0
2024-04-20 10:10 am 3.9 3.3 8.3 NE 2.0 4.8 W AVERAGE 6.0
2024-04-20 09:40 am 3.9 3.6 8.3NNE 2.0 4.8 WNW AVERAGE 6.3
2024-04-20 09:10 am 3.9 3.6 11.4ENE 1.6 4.3 W SWELL 6.3
2024-04-20 08:40 am 3.9 3.6 10.0NNE 1.6 4.8 W SWELL 6.5
2024-04-20 08:10 am 3.9 3.6 8.3 NE 1.6 4.8 W AVERAGE 6.4
2024-04-20 07:40 am 3.9 3.6 7.7 NE 1.3 3.4 SW AVERAGE 6.1
2024-04-20 07:10 am 4.3 3.9 10.0 NE 1.3 4.0 W SWELL 6.5
2024-04-20 06:40 am 3.6 3.6 10.0 NE 1.3 3.8 W SWELL 6.0
2024-04-20 06:10 am 4.3 3.9 9.1 NE 1.6 4.5 W SWELL 6.2
2024-04-20 05:40 am 4.3 3.9 9.1 NE 1.6 4.8 W SWELL 6.3
2024-04-20 05:10 am 4.3 3.9 9.1 NE 1.6 4.8 W SWELL 6.2
2024-04-20 04:40 am 3.9 3.6 10.0 NE 2.0 4.5 W SWELL 6.1
2024-04-20 04:10 am 3.9 3.6 11.4ENE 2.0 4.5 W SWELL 5.9
2024-04-20 03:40 am 3.9 3.3 7.7 NE 2.3 4.8 W AVERAGE 5.9
2024-04-20 03:10 am 3.9 3.3 8.3 E 2.3 4.3 W AVERAGE 5.8
2024-04-20 02:40 am 3.9 3.0 9.1ENE 2.3 4.8 WSW SWELL 5.7
2024-04-20 02:10 am 3.6 3.0 10.8 E 2.3 4.8 W SWELL 5.7
2024-04-20 01:40 am 3.9 3.0 8.3 E 2.3 4.5 W AVERAGE 5.6
2024-04-20 01:10 am 3.9 3.3 8.3ENE 2.0 5.0 WSW AVERAGE 5.9
2024-04-20 12:40 am 3.9 3.3 8.3ENE 2.0 4.8 W AVERAGE 6.0
2024-04-20 12:10 am 3.6 3.0 8.3 E 2.0 4.5 W AVERAGE 6.0
2024-04-19 11:40 pm 3.9 3.3 10.0ENE 2.0 4.5 W SWELL 6.0
2024-04-19 11:10 pm 3.9 3.6 9.1ENE 1.6 4.3 WSW SWELL 6.0

Plot of wave energy versus frequency (and period)